"read_dt","SO2 (ppb)","flags","PMT voltage (V)","lamp voltage (V)","lamp intensity (Hz)","internal temp (C)","react chamber temp (C)","sample flow (l/min)","pres (mmHg)","SO2 bkg (ppb)","SO2 coefficient"
2013-10-01 00:00:00,4721E-5,5C000000,-0724,0951,10987,027.4,045.3,0.394,739.6,01.18,0.508
2013-10-01 00:01:00,1450E-4,5C000000,-0724,0952,11086,027.4,045.3,0.394,739.6,01.18,0.508
2013-10-01 00:02:00,1935E-4,5C000000,-0724,0951,11086,027.4,045.3,0.394,739.6,01.18,0.508
2013-10-01 00:03:00,7965E-5,5C000000,-0724,0951,10985,027.4,045.3,0.394,739.6,01.18,0.508
2013-10-01 00:04:00,1655E-4,5C000000,-0724,0951,10935,027.4,045.3,0.394,739.6,01.18,0.508
2013-10-01 00:05:00,2097E-4,5C000000,-0724,0952,10995,027.4,045.3,0.394,739.5,01.18,0.508
2013-10-01 00:06:00,1586E-4,5C000000,-0724,0952,11004,027.4,045.3,0.394,739.5,01.18,0.508
2013-10-01 00:07:00,1419E-4,5C000000,-0724,0951,11000,027.4,045.3,0.394,739.6,01.18,0.508
2013-10-01 00:08:00,1394E-4,5C000000,-0724,0952,10909,027.4,045.3,0.394,739.5,01.18,0.508
2013-10-01 00:09:00,1287E-4,5C000000,-0724,0951,10996,027.4,045.3,0.394,739.5,01.18,0.508
2013-10-01 00:10:00,8645E-5,5C000000,-0724,0952,10869,027.4,045.3,0.394,739.5,01.18,0.508
2013-10-01 00:11:00,2418E-5,5C000000,-0724,0952,11003,027.4,045.3,0.394,739.5,01.18,0.508
2013-10-01 00:12:00,4631E-5,5C000000,-0724,0951,10879,027.4,045.3,0.394,739.5,01.18,0.508
2013-10-01 00:13:00,1213E-4,5C000000,-0724,0951,10955,027.4,045.3,0.394,739.4,01.18,0.508
2013-10-01 00:14:00,1262E-4,5C000000,-0724,0951,11049,027.4,045.3,0.394,739.5,01.18,0.508
2013-10-01 00:15:00,6491E-5,5C000000,-0724,0952,11048,027.4,045.3,0.394,739.5,01.18,0.508
2013-10-01 00:16:00,5136E-5,5C000000,-0724,0952,11132,027.4,045.3,0.394,739.5,01.18,0.508
2013-10-01 00:17:00,1352E-4,5C000000,-0724,0952,10903,027.4,045.3,0.394,739.6,01.18,0.508
2013-10-01 00:18:00,1813E-4,5C000000,-0724,0951,10801,027.4,045.4,0.394,739.6,01.18,0.508
2013-10-01 00:19:00,5381E-5,5C000000,-0724,0952,10910,027.4,045.3,0.394,739.6,01.18,0.508
2013-10-01 00:20:00,1874E-4,5C000000,-0724,0952,11054,027.4,045.4,0.394,739.6,01.18,0.508
2013-10-01 00:21:00,1006E-4,5C000000,-0724,0952,10974,027.5,045.4,0.394,739.5,01.18,0.508
2013-10-01 00:22:00,8497E-5,5C000000,-0724,0951,11065,027.4,045.3,0.394,739.6,01.18,0.508
2013-10-01 00:23:00,1660E-4,5C000000,-0724,0951,11003,027.4,045.3,0.394,739.5,01.18,0.508
2013-10-01 00:24:00,-9387E-6,5C000000,-0724,0952,10971,027.4,045.3,0.394,739.6,01.18,0.508
2013-10-01 00:25:00,1464E-4,5C000000,-0724,0951,11051,027.5,045.3,0.394,739.6,01.18,0.508
2013-10-01 00:26:00,1281E-4,5C000000,-0724,0951,11100,027.5,045.3,0.394,739.5,01.18,0.508
2013-10-01 00:27:00,7065E-5,5C000000,-0724,0951,11036,027.4,045.3,0.394,739.6,01.18,0.508
2013-10-01 00:28:00,1779E-4,5C000000,-0724,0952,11042,027.4,045.3,0.394,739.6,01.18,0.508
2013-10-01 00:29:00,3457E-5,5C000000,-0724,0952,11115,027.4,045.3,0.394,739.6,01.18,0.508
2013-10-01 00:30:00,1069E-4,5C000000,-0724,0951,11125,027.4,045.3,0.394,739.5,01.18,0.508
2013-10-01 00:31:00,8831E-5,5C000000,-0724,0951,10862,027.4,045.3,0.394,739.5,01.18,0.508
2013-10-01 00:32:00,1444E-5,5C000000,-0724,0952,11058,027.4,045.3,0.394,739.5,01.18,0.508
2013-10-01 00:33:00,7000E-5,5C000000,-0724,0952,11001,027.4,045.3,0.394,739.6,01.18,0.508
2013-10-01 00:34:00,1133E-4,5C000000,-0724,0951,11117,027.4,045.3,0.394,739.5,01.18,0.508
2013-10-01 00:35:00,9566E-5,5C000000,-0724,0951,10990,027.4,045.3,0.394,739.6,01.18,0.508
2013-10-01 00:36:00,7996E-6,5C000000,-0724,0952,11115,027.4,045.3,0.394,739.6,01.18,0.508
2013-10-01 00:37:00,1372E-4,5C000000,-0724,0952,11163,027.4,045.3,0.394,739.4,01.18,0.508
2013-10-01 00:38:00,1030E-4,5C000000,-0724,0951,10877,027.5,045.3,0.394,739.4,01.18,0.508
2013-10-01 00:39:00,1075E-4,5C000000,-0724,0953,11024,027.5,045.3,0.394,739.4,01.18,0.508
2013-10-01 00:40:00,7580E-5,5C000000,-0724,0952,10974,027.5,045.3,0.393,739.5,01.18,0.508
2013-10-01 00:41:00,1050E-4,5C000000,-0724,0952,11140,027.4,045.3,0.394,739.5,01.18,0.508
2013-10-01 00:42:00,1412E-4,5C000000,-0724,0952,11070,027.4,045.3,0.394,739.6,01.18,0.508
2013-10-01 00:43:00,3471E-5,5C000000,-0724,0951,11024,027.4,045.3,0.394,739.5,01.18,0.508
2013-10-01 00:44:00,5000E-5,5C000000,-0724,0951,11020,027.4,045.3,0.394,739.5,01.18,0.508
2013-10-01 00:45:00,1038E-4,5C000000,-0724,0952,10992,027.4,045.3,0.394,739.5,01.18,0.508
2013-10-01 00:46:00,9889E-5,5C000000,-0724,0952,10936,027.4,045.3,0.394,739.5,01.18,0.508
2013-10-01 00:47:00,6342E-5,5C000000,-0724,0951,10942,027.4,045.3,0.394,739.5,01.18,0.508
2013-10-01 00:48:00,9028E-5,5C000000,-0724,0952,11158,027.4,045.3,0.394,739.5,01.18,0.508
2013-10-01 00:49:00,1554E-4,5C000000,-0724,0951,10809,027.4,045.3,0.394,739.5,01.18,0.508
2013-10-01 00:50:00,7133E-5,5C000000,-0724,0952,11035,027.4,045.3,0.394,739.5,01.18,0.508
2013-10-01 00:51:00,-2962E-5,5C000000,-0724,0952,11016,027.4,045.3,0.394,739.5,01.18,0.508
2013-10-01 00:52:00,4888E-5,5C000000,-0724,0952,11010,027.4,045.3,0.394,739.5,01.18,0.508
2013-10-01 00:53:00,1257E-4,5C000000,-0724,0951,10984,027.4,045.3,0.394,739.6,01.18,0.508
2013-10-01 00:54:00,1089E-4,5C000000,-0724,0951,11003,027.4,045.3,0.394,739.5,01.18,0.508
2013-10-01 00:55:00,6214E-5,5C000000,-0724,0952,11050,027.4,045.3,0.394,739.5,01.18,0.508
2013-10-01 00:56:00,9834E-5,5C000000,-0724,0952,11013,027.4,045.3,0.394,739.5,01.18,0.508
2013-10-01 00:57:00,5828E-5,5C000000,-0724,0952,11037,027.4,045.3,0.394,739.5,01.18,0.508
2013-10-01 00:58:00,4497E-5,5C000000,-0724,0951,11028,027.5,045.3,0.394,739.5,01.18,0.508
2013-10-01 00:59:00,1190E-4,5C000000,-0724,0952,10963,027.5,045.3,0.394,739.6,01.18,0.508
2013-10-01 01:00:00,1079E-4,5C000000,-0724,0951,11007,027.4,045.3,0.394,739.4,01.18,0.508
2013-10-01 01:01:00,1137E-4,5C000000,-0724,0952,10972,027.4,045.3,0.394,739.5,01.18,0.508
2013-10-01 01:02:00,1546E-4,5C000000,-0724,0952,10901,027.4,045.3,0.394,739.4,01.18,0.508
2013-10-01 01:03:00,6700E-5,5C000000,-0724,0952,11083,027.4,045.3,0.394,739.3,01.18,0.508
2013-10-01 01:04:00,7249E-5,5C000000,-0724,0952,10963,027.4,045.3,0.394,739.5,01.18,0.508
2013-10-01 01:05:00,9938E-5,5C000000,-0724,0951,11054,027.4,045.3,0.394,739.5,01.18,0.508
2013-10-01 01:06:00,1395E-4,5C000000,-0724,0951,11060,027.4,045.3,0.394,739.4,01.18,0.508
2013-10-01 01:07:00,4823E-5,5C000000,-0724,0952,10922,027.4,045.3,0.394,739.5,01.18,0.508
2013-10-01 01:08:00,1066E-4,5C000000,-0724,0952,11142,027.4,045.3,0.394,739.6,01.18,0.508
2013-10-01 01:09:00,5829E-5,5C000000,-0724,0952,10968,027.4,045.3,0.394,739.5,01.18,0.508
2013-10-01 01:10:00,1589E-4,5C000000,-0724,0951,10944,027.4,045.3,0.394,739.4,01.18,0.508
2013-10-01 01:11:00,5236E-5,5C000000,-0724,0952,11047,027.3,045.3,0.394,739.3,01.18,0.508
2013-10-01 01:12:00,1452E-4,5C000000,-0724,0952,11084,027.4,045.3,0.394,739.4,01.18,0.508
2013-10-01 01:13:00,1259E-4,5C000000,-0724,0952,10951,027.3,045.3,0.394,739.4,01.18,0.508
2013-10-01 01:14:00,1077E-4,5C000000,-0724,0950,11046,027.3,045.3,0.394,739.4,01.18,0.508
2013-10-01 01:15:00,1791E-4,5C000000,-0724,0951,11003,027.3,045.3,0.394,739.3,01.18,0.508
2013-10-01 01:16:00,6196E-7,5C000000,-0724,0952,10892,027.4,045.3,0.394,739.3,01.18,0.508
2013-10-01 01:17:00,5376E-5,5C000000,-0724,0951,11077,027.4,045.3,0.394,739.4,01.18,0.508
2013-10-01 01:18:00,1438E-4,5C000000,-0724,0952,11050,027.4,045.3,0.394,739.4,01.18,0.508
2013-10-01 01:19:00,1914E-4,5C000000,-0724,0951,11141,027.4,045.4,0.394,739.4,01.18,0.508
2013-10-01 01:20:00,7274E-5,5C000000,-0724,0952,11019,027.4,045.3,0.394,739.4,01.18,0.508
2013-10-01 01:21:00,1263E-4,5C000000,-0724,0952,10930,027.4,045.3,0.394,739.3,01.18,0.508
2013-10-01 01:22:00,5117E-5,5C000000,-0724,0951,10940,027.4,045.4,0.394,739.2,01.18,0.508
2013-10-01 01:23:00,7851E-5,5C000000,-0724,0951,10980,027.4,045.3,0.394,739.3,01.18,0.508
2013-10-01 01:24:00,1158E-4,5C000000,-0724,0952,11044,027.4,045.3,0.394,739.3,01.18,0.508
2013-10-01 01:25:00,8888E-5,5C000000,-0724,0952,11122,027.4,045.3,0.394,739.3,01.18,0.508
2013-10-01 01:26:00,1086E-4,5C000000,-0724,0951,11053,027.4,045.3,0.394,739.4,01.18,0.508
2013-10-01 01:27:00,5287E-5,5C000000,-0724,0950,10953,027.4,045.3,0.394,739.3,01.18,0.508
2013-10-01 01:28:00,1656E-4,5C000000,-0724,0951,11069,027.4,045.3,0.394,739.3,01.18,0.508
2013-10-01 01:29:00,1531E-4,5C000000,-0724,0952,10930,027.4,045.3,0.394,739.3,01.18,0.508
2013-10-01 01:30:00,3079E-5,5C000000,-0724,0951,11029,027.4,045.4,0.394,739.4,01.18,0.508
2013-10-01 01:31:00,1376E-4,5C000000,-0724,0952,11094,027.4,045.3,0.394,739.3,01.18,0.508
2013-10-01 01:32:00,1350E-4,5C000000,-0724,0952,10978,027.4,045.3,0.394,739.4,01.18,0.508
2013-10-01 01:33:00,1952E-4,5C000000,-0724,0952,11069,027.4,045.3,0.394,739.4,01.18,0.508
2013-10-01 01:34:00,1069E-4,5C000000,-0724,0950,10957,027.3,045.3,0.394,739.3,01.18,0.508
2013-10-01 01:35:00,5796E-5,5C000000,-0724,0951,11103,027.3,045.4,0.393,739.2,01.18,0.508
2013-10-01 01:36:00,4995E-5,5C000000,-0724,0953,10945,027.4,045.3,0.394,739.3,01.18,0.508
2013-10-01 01:37:00,9633E-5,5C000000,-0724,0951,10972,027.4,045.3,0.394,739.3,01.18,0.508
2013-10-01 01:38:00,1368E-4,5C000000,-0724,0953,10867,027.4,045.3,0.394,739.4,01.18,0.508
2013-10-01 01:39:00,1758E-4,5C000000,-0724,0951,11147,027.4,045.3,0.394,739.5,01.18,0.508
2013-10-01 01:40:00,1134E-4,5C000000,-0724,0951,10967,027.4,045.3,0.394,739.3,01.18,0.508
2013-10-01 01:41:00,8756E-5,5C000000,-0724,0951,11120,027.4,045.3,0.394,739.4,01.18,0.508
2013-10-01 01:42:00,8206E-5,5C000000,-0724,0952,11044,027.4,045.3,0.394,739.3,01.18,0.508
2013-10-01 01:43:00,9771E-5,5C000000,-0724,0952,10980,027.4,045.3,0.394,739.4,01.18,0.508
2013-10-01 01:44:00,3021E-5,5C000000,-0724,0952,11038,027.4,045.3,0.394,739.3,01.18,0.508
2013-10-01 01:45:00,1602E-4,5C000000,-0724,0952,10991,027.4,045.3,0.394,739.4,01.18,0.508
2013-10-01 01:46:00,8244E-5,5C000000,-0724,0953,11060,027.4,045.3,0.394,739.3,01.18,0.508
2013-10-01 01:47:00,9685E-5,5C000000,-0724,0952,11006,027.4,045.3,0.394,739.4,01.18,0.508
2013-10-01 01:48:00,9397E-5,5C000000,-0724,0951,10984,027.4,045.4,0.394,739.4,01.18,0.508
2013-10-01 01:49:00,7205E-5,5C000000,-0724,0952,10960,027.4,045.3,0.394,739.3,01.18,0.508
2013-10-01 01:50:00,8505E-5,5C000000,-0724,0952,10865,027.4,045.3,0.394,739.2,01.18,0.508
2013-10-01 01:51:00,7885E-5,5C000000,-0724,0952,11064,027.4,045.3,0.394,739.3,01.18,0.508
2013-10-01 01:52:00,9993E-5,5C000000,-0724,0951,11018,027.4,045.3,0.394,739.3,01.18,0.508
2013-10-01 01:53:00,1218E-4,5C000000,-0724,0952,10979,027.4,045.3,0.394,739.3,01.18,0.508
2013-10-01 01:54:00,3471E-5,5C000000,-0724,0952,11011,027.4,045.3,0.394,739.3,01.18,0.508
2013-10-01 01:55:00,7819E-5,5C000000,-0724,0951,10843,027.4,045.3,0.394,739.3,01.18,0.508
2013-10-01 01:56:00,8334E-5,5C000000,-0724,0952,11062,027.4,045.3,0.394,739.3,01.18,0.508
2013-10-01 01:57:00,7254E-5,5C000000,-0724,0953,11067,027.5,045.3,0.393,739.3,01.18,0.508
2013-10-01 01:58:00,1364E-4,5C000000,-0724,0951,10981,027.5,045.3,0.393,739.2,01.18,0.508
2013-10-01 01:59:00,3463E-5,5C000000,-0724,0951,10990,027.5,045.3,0.393,739.2,01.18,0.508
2013-10-01 02:00:00,6927E-5,5C000000,-0724,0952,11123,027.5,045.3,0.394,739.2,01.18,0.508
2013-10-01 02:01:00,8687E-5,5C000000,-0724,0952,11006,027.4,045.3,0.394,739.3,01.18,0.508
2013-10-01 02:02:00,1737E-4,5C000000,-0724,0952,11077,027.4,045.3,0.394,739.3,01.18,0.508
2013-10-01 02:03:00,1037E-4,5C000000,-0724,0952,10937,027.4,045.3,0.394,739.3,01.18,0.508
2013-10-01 02:04:00,1371E-4,5C000000,-0724,0952,11135,027.4,045.3,0.394,739.2,01.18,0.508
2013-10-01 02:05:00,5842E-5,5C000000,-0724,0952,10901,027.4,045.4,0.394,739.2,01.18,0.508
2013-10-01 02:06:00,6818E-5,5C000000,-0724,0951,10995,027.4,045.3,0.394,739.3,01.18,0.508
2013-10-01 02:07:00,1127E-4,5C000000,-0724,0952,11037,027.4,045.3,0.394,739.3,01.18,0.508
2013-10-01 02:08:00,1063E-4,5C000000,-0724,0952,10902,027.4,045.3,0.394,739.4,01.18,0.508
2013-10-01 02:09:00,8968E-5,5C000000,-0724,0953,11066,027.4,045.3,0.394,739.4,01.18,0.508
2013-10-01 02:10:00,1128E-4,5C000000,-0724,0952,11007,027.4,045.3,0.393,739.4,01.18,0.508
2013-10-01 02:11:00,1014E-4,5C000000,-0724,0952,11028,027.4,045.3,0.393,739.3,01.18,0.508
2013-10-01 02:12:00,1946E-4,5C000000,-0724,0952,11095,027.4,045.3,0.394,739.4,01.18,0.508
2013-10-01 02:13:00,1155E-4,5C000000,-0724,0952,10915,027.4,045.3,0.394,739.4,01.18,0.508
2013-10-01 02:14:00,-1732E-5,5C000000,-0724,0951,11072,027.3,045.3,0.394,739.2,01.18,0.508
2013-10-01 02:15:00,9530E-5,5C000000,-0724,0951,11125,027.4,045.3,0.394,739.3,01.18,0.508
2013-10-01 02:16:00,1478E-4,5C000000,-0724,0951,10852,027.4,045.3,0.394,739.5,01.18,0.508
2013-10-01 02:17:00,1027E-4,5C000000,-0724,0952,11012,027.4,045.3,0.394,739.4,01.18,0.508
2013-10-01 02:18:00,1101E-4,5C000000,-0724,0952,10844,027.4,045.3,0.394,739.4,01.18,0.508
2013-10-01 02:19:00,6505E-5,5C000000,-0724,0952,11037,027.4,045.3,0.394,739.3,01.18,0.508
2013-10-01 02:20:00,9728E-5,5C000000,-0724,0952,10976,027.4,045.3,0.394,739.4,01.18,0.508
2013-10-01 02:21:00,7781E-5,5C000000,-0724,0952,10886,027.4,045.3,0.394,739.5,01.18,0.508
2013-10-01 02:22:00,5666E-5,5C000000,-0724,0952,10973,027.4,045.3,0.394,739.6,01.18,0.508
2013-10-01 02:23:00,3383E-5,5C000000,-0724,0952,11076,027.4,045.3,0.394,739.5,01.18,0.508
2013-10-01 02:24:00,7528E-5,5C000000,-0724,0952,10945,027.4,045.3,0.394,739.5,01.18,0.508
2013-10-01 02:25:00,8006E-5,5C000000,-0724,0951,11013,027.4,045.3,0.394,739.4,01.18,0.508
2013-10-01 02:26:00,3568E-6,5C000000,-0724,0952,11085,027.4,045.3,0.394,739.4,01.18,0.508
2013-10-01 02:27:00,1004E-4,5C000000,-0724,0952,11102,027.4,045.3,0.394,739.5,01.18,0.508
2013-10-01 02:28:00,9006E-5,5C000000,-0724,0952,10878,027.4,045.3,0.394,739.5,01.18,0.508
2013-10-01 02:29:00,1753E-4,5C000000,-0724,0952,11139,027.4,045.3,0.394,739.4,01.18,0.508
2013-10-01 02:30:00,4300E-5,5C000000,-0724,0952,11070,027.4,045.3,0.394,739.4,01.18,0.508
2013-10-01 02:31:00,9514E-5,5C000000,-0724,0951,11018,027.4,045.3,0.394,739.5,01.18,0.508
2013-10-01 02:32:00,6009E-5,5C000000,-0724,0952,11058,027.4,045.3,0.394,739.3,01.18,0.508
2013-10-01 02:33:00,1180E-4,5C000000,-0724,0952,11011,027.3,045.3,0.394,739.6,01.18,0.508
2013-10-01 02:34:00,1199E-4,5C000000,-0724,0952,11004,027.4,045.3,0.394,739.6,01.18,0.508
2013-10-01 02:35:00,7357E-5,5C000000,-0724,0952,10892,027.3,045.3,0.394,739.6,01.18,0.508
2013-10-01 02:36:00,5244E-5,5C000000,-0724,0952,11056,027.4,045.3,0.394,739.5,01.18,0.508
2013-10-01 02:37:00,5345E-5,5C000000,-0724,0951,10980,027.3,045.3,0.394,739.4,01.18,0.508
2013-10-01 02:38:00,9562E-5,5C000000,-0724,0952,11059,027.4,045.3,0.394,739.5,01.18,0.508
2013-10-01 02:39:00,1265E-4,5C000000,-0724,0952,11062,027.4,045.3,0.394,739.5,01.18,0.508
2013-10-01 02:40:00,1087E-4,5C000000,-0724,0952,10747,027.3,045.3,0.394,739.4,01.18,0.508
2013-10-01 02:41:00,1232E-4,5C000000,-0724,0952,10990,027.3,045.3,0.394,739.4,01.18,0.508
2013-10-01 02:42:00,6274E-5,5C000000,-0724,0952,10998,027.3,045.3,0.394,739.3,01.18,0.508
2013-10-01 02:43:00,1746E-4,5C000000,-0724,0951,10968,027.4,045.3,0.394,739.4,01.18,0.508
2013-10-01 02:44:00,6683E-5,5C000000,-0724,0952,11049,027.4,045.3,0.394,739.4,01.18,0.508
2013-10-01 02:45:00,1667E-4,5C000000,-0724,0951,11045,027.3,045.3,0.394,739.3,01.18,0.508
2013-10-01 02:46:00,1279E-4,5C000000,-0724,0952,11049,027.4,045.3,0.394,739.3,01.18,0.508
2013-10-01 02:47:00,4741E-5,5C000000,-0724,0951,11069,027.3,045.3,0.394,739.4,01.18,0.508
2013-10-01 02:48:00,1349E-4,5C000000,-0724,0951,11011,027.3,045.3,0.394,739.1,01.18,0.508
2013-10-01 02:49:00,1008E-4,5C000000,-0724,0952,11009,027.4,045.3,0.394,739.4,01.18,0.508
2013-10-01 02:50:00,9107E-5,5C000000,-0724,0952,10989,027.4,045.3,0.394,739.3,01.18,0.508
2013-10-01 02:51:00,1095E-4,5C000000,-0724,0952,11002,027.4,045.4,0.394,739.3,01.18,0.508
2013-10-01 02:52:00,1026E-4,5C000000,-0724,0952,10999,027.4,045.3,0.394,739.0,01.18,0.508
2013-10-01 02:53:00,5673E-5,5C000000,-0724,0952,11089,027.4,045.3,0.394,739.4,01.18,0.508
2013-10-01 02:54:00,8355E-5,5C000000,-0724,0952,10998,027.4,045.3,0.394,739.2,01.18,0.508
2013-10-01 02:55:00,1609E-4,5C000000,-0724,0952,11187,027.4,045.3,0.394,739.3,01.18,0.508
2013-10-01 02:56:00,8369E-5,5C000000,-0724,0952,11103,027.4,045.3,0.393,739.0,01.18,0.508
2013-10-01 02:57:00,6416E-5,5C000000,-0724,0952,11000,027.4,045.4,0.394,739.4,01.18,0.508
2013-10-01 02:58:00,2213E-4,5C000000,-0724,0952,11033,027.4,045.3,0.394,739.4,01.18,0.508
2013-10-01 02:59:00,1648E-4,5C000000,-0724,0952,10847,027.4,045.3,0.394,739.4,01.18,0.508
2013-10-01 03:00:00,7876E-5,5C000000,-0724,0951,10909,027.4,045.3,0.394,739.4,01.18,0.508
2013-10-01 03:01:00,8383E-5,5C000000,-0724,0952,10988,027.4,045.3,0.394,739.3,01.18,0.508
2013-10-01 03:02:00,1834E-4,5C000000,-0724,0951,10829,027.4,045.3,0.394,739.4,01.18,0.508
2013-10-01 03:03:00,6418E-5,5C000000,-0724,0951,10879,027.4,045.3,0.394,739.5,01.18,0.508
2013-10-01 03:04:00,9209E-6,5C000000,-0724,0952,10942,027.3,045.3,0.394,739.4,01.18,0.508
2013-10-01 03:05:00,1381E-4,5C000000,-0724,0951,10801,027.3,045.3,0.394,739.4,01.18,0.508
2013-10-01 03:06:00,1184E-4,5C000000,-0724,0952,11096,027.4,045.3,0.394,739.3,01.18,0.508
2013-10-01 03:07:00,6287E-5,5C000000,-0724,0952,10895,027.4,045.3,0.394,739.4,01.18,0.508
2013-10-01 03:08:00,5730E-5,5C000000,-0724,0952,11066,027.4,045.3,0.394,739.5,01.18,0.508
2013-10-01 03:09:00,9787E-5,5C000000,-0724,0952,11052,027.4,045.3,0.394,739.5,01.18,0.508
2013-10-01 03:10:00,1819E-4,5C000000,-0724,0951,11130,027.4,045.3,0.394,739.4,01.18,0.508
2013-10-01 03:11:00,1407E-4,5C000000,-0724,0951,11167,027.4,045.3,0.394,739.4,01.18,0.508
2013-10-01 03:12:00,1332E-6,5C000000,-0724,0951,11022,027.4,045.3,0.394,739.6,01.18,0.508
2013-10-01 03:13:00,1276E-4,5C000000,-0724,0952,10982,027.4,045.3,0.394,739.5,01.18,0.508
2013-10-01 03:14:00,9637E-5,5C000000,-0724,0952,11052,027.4,045.3,0.394,739.5,01.18,0.508
2013-10-01 03:15:00,1339E-4,5C000000,-0724,0952,11064,027.4,045.3,0.394,739.6,01.18,0.508
2013-10-01 03:16:00,1010E-4,5C000000,-0724,0952,11078,027.4,045.4,0.394,739.7,01.18,0.508
2013-10-01 03:17:00,1008E-4,5C000000,-0724,0951,10989,027.4,045.3,0.394,739.8,01.18,0.508
2013-10-01 03:18:00,1243E-4,5C000000,-0724,0952,11077,027.4,045.3,0.394,739.7,01.18,0.508
2013-10-01 03:19:00,1509E-4,5C000000,-0724,0952,11085,027.4,045.3,0.394,739.7,01.18,0.508
2013-10-01 03:20:00,1048E-4,5C000000,-0724,0952,11083,027.4,045.4,0.394,739.6,01.18,0.508
2013-10-01 03:21:00,5347E-5,5C000000,-0724,0953,11107,027.4,045.3,0.394,739.5,01.18,0.508
2013-10-01 03:22:00,5851E-5,5C000000,-0724,0952,11054,027.4,045.3,0.394,739.5,01.18,0.508
2013-10-01 03:23:00,9582E-5,5C000000,-0724,0952,11060,027.4,045.3,0.394,739.5,01.18,0.508
2013-10-01 03:24:00,8378E-5,5C000000,-0724,0952,11162,027.4,045.4,0.394,739.6,01.18,0.508
2013-10-01 03:25:00,9097E-5,5C000000,-0724,0952,11157,027.4,045.3,0.394,739.5,01.18,0.508
2013-10-01 03:26:00,4745E-5,5C000000,-0724,0952,10990,027.4,045.3,0.394,739.6,01.18,0.508
2013-10-01 03:27:00,7874E-5,5C000000,-0724,0952,11066,027.4,045.3,0.394,739.6,01.18,0.508
2013-10-01 03:28:00,1073E-4,5C000000,-0724,0952,10940,027.4,045.3,0.394,739.6,01.18,0.508
2013-10-01 03:29:00,3220E-5,5C000000,-0724,0952,11089,027.4,045.3,0.394,739.4,01.18,0.508
2013-10-01 03:30:00,9534E-5,5C000000,-0724,0952,10953,027.4,045.3,0.394,739.7,01.18,0.508
2013-10-01 03:31:00,5477E-5,5C000000,-0724,0952,10968,027.4,045.3,0.394,739.6,01.18,0.508
2013-10-01 03:32:00,7591E-5,5C000000,-0724,0951,10897,027.4,045.3,0.394,739.7,01.18,0.508
2013-10-01 03:33:00,1049E-4,5C000000,-0724,0952,10969,027.4,045.3,0.394,739.7,01.18,0.508
2013-10-01 03:34:00,6068E-5,5C000000,-0724,0952,10968,027.4,045.3,0.394,739.6,01.18,0.508
2013-10-01 03:35:00,1451E-4,5C000000,-0724,0952,11068,027.4,045.3,0.394,739.5,01.18,0.508
2013-10-01 03:36:00,9146E-5,5C000000,-0724,0952,10954,027.4,045.3,0.394,739.6,01.18,0.508
2013-10-01 03:37:00,3856E-5,5C000000,-0724,0951,10871,027.4,045.3,0.394,739.6,01.18,0.508
2013-10-01 03:38:00,2005E-5,5C000000,-0724,0951,10878,027.4,045.3,0.393,739.5,01.18,0.508
2013-10-01 03:39:00,1140E-4,5C000000,-0724,0952,11004,027.4,045.3,0.394,739.5,01.18,0.508
2013-10-01 03:40:00,1607E-4,5C000000,-0724,0952,10982,027.4,045.3,0.394,739.5,01.18,0.508
2013-10-01 03:41:00,1587E-4,5C000000,-0724,0952,11053,027.4,045.3,0.394,739.6,01.18,0.508
2013-10-01 03:42:00,1694E-4,5C000000,-0724,0952,11025,027.4,045.3,0.394,739.5,01.18,0.508
2013-10-01 03:43:00,1032E-4,5C000000,-0724,0952,10934,027.4,045.4,0.394,739.7,01.18,0.508
2013-10-01 03:44:00,4915E-5,5C000000,-0724,0952,11037,027.3,045.3,0.394,739.6,01.18,0.508
2013-10-01 03:45:00,3216E-5,5C000000,-0724,0952,11058,027.4,045.3,0.394,739.6,01.18,0.508
2013-10-01 03:46:00,8207E-5,5C000000,-0724,0952,10974,027.4,045.3,0.394,739.6,01.18,0.508
2013-10-01 03:47:00,9829E-5,5C000000,-0724,0952,10952,027.4,045.3,0.394,739.6,01.18,0.508
2013-10-01 03:48:00,3196E-5,5C000000,-0724,0953,11013,027.4,045.3,0.394,739.6,01.18,0.508
2013-10-01 03:49:00,1191E-4,5C000000,-0724,0952,10858,027.4,045.3,0.394,739.7,01.18,0.508
2013-10-01 03:50:00,1221E-4,5C000000,-0724,0951,11006,027.3,045.3,0.394,739.6,01.18,0.508
2013-10-01 03:51:00,1925E-4,5C000000,-0724,0951,10868,027.4,045.3,0.394,739.6,01.18,0.508
2013-10-01 03:52:00,9635E-5,5C000000,-0724,0952,10829,027.4,045.3,0.394,739.6,01.18,0.508
2013-10-01 03:53:00,1264E-4,5C000000,-0724,0951,11112,027.4,045.3,0.394,739.5,01.18,0.508
2013-10-01 03:54:00,9057E-5,5C000000,-0724,0952,10999,027.4,045.3,0.394,739.5,01.18,0.508
2013-10-01 03:55:00,8433E-5,5C000000,-0724,0951,10976,027.3,045.3,0.394,739.4,01.18,0.508
2013-10-01 03:56:00,9610E-5,5C000000,-0724,0951,11072,027.4,045.3,0.394,739.5,01.18,0.508
2013-10-01 03:57:00,4557E-5,5C000000,-0724,0952,10968,027.4,045.3,0.394,739.6,01.18,0.508
2013-10-01 03:58:00,4050E-5,5C000000,-0724,0952,10978,027.4,045.3,0.394,739.6,01.18,0.508
2013-10-01 03:59:00,1520E-4,5C000000,-0724,0952,11035,027.4,045.3,0.394,739.5,01.18,0.508
2013-10-01 04:00:00,1552E-4,5C000000,-0724,0951,11021,027.4,045.3,0.394,739.6,01.18,0.508
2013-10-01 04:01:00,8139E-5,5C000000,-0724,0952,11069,027.4,045.4,0.394,739.6,01.18,0.508
2013-10-01 04:02:00,1128E-4,5C000000,-0724,0952,10946,027.4,045.3,0.394,739.6,01.18,0.508
2013-10-01 04:03:00,3962E-5,5C000000,-0724,0953,11108,027.5,045.3,0.394,739.6,01.18,0.508
2013-10-01 04:04:00,6890E-5,5C000000,-0724,0952,10971,027.4,045.3,0.394,739.5,01.18,0.508
2013-10-01 04:05:00,2125E-4,5C000000,-0724,0953,11087,027.4,045.3,0.394,739.5,01.18,0.508
2013-10-01 04:06:00,9998E-5,5C000000,-0724,0953,11169,027.4,045.3,0.394,739.6,01.18,0.508
2013-10-01 04:07:00,6006E-5,5C000000,-0724,0952,10944,027.4,045.3,0.394,739.6,01.18,0.508
2013-10-01 04:08:00,1511E-4,5C000000,-0724,0952,10922,027.4,045.3,0.394,739.6,01.18,0.508
2013-10-01 04:09:00,1014E-4,5C000000,-0724,0952,10965,027.4,045.3,0.394,739.7,01.18,0.508
2013-10-01 04:10:00,6277E-5,5C000000,-0724,0953,11017,027.4,045.3,0.394,739.6,01.18,0.508
2013-10-01 04:11:00,-2926E-5,5C000000,-0724,0952,11056,027.4,045.3,0.394,739.6,01.18,0.508
2013-10-01 04:12:00,2919E-5,5C000000,-0724,0952,11045,027.4,045.3,0.394,739.7,01.18,0.508
2013-10-01 04:13:00,-8516E-6,5C000000,-0724,0952,11017,027.4,045.3,0.394,739.6,01.18,0.508
2013-10-01 04:14:00,4785E-5,5C000000,-0724,0952,10958,027.4,045.3,0.394,739.7,01.18,0.508
2013-10-01 04:15:00,4754E-5,5C000000,-0724,0952,11127,027.3,045.3,0.394,739.5,01.18,0.508
2013-10-01 04:16:00,8830E-5,5C000000,-0724,0952,10993,027.3,045.3,0.394,739.5,01.18,0.508
2013-10-01 04:17:00,1173E-4,5C000000,-0724,0951,11084,027.3,045.3,0.394,739.6,01.18,0.508
2013-10-01 04:18:00,7239E-5,5C000000,-0724,0952,10871,027.3,045.3,0.394,739.6,01.18,0.508
2013-10-01 04:19:00,1217E-4,5C000000,-0724,0952,10960,027.3,045.3,0.394,739.6,01.18,0.508
2013-10-01 04:20:00,5032E-5,5C000000,-0724,0952,11025,027.4,045.3,0.394,739.7,01.18,0.508